Year,Month,Day,Hour,Minute,Value (Times are PST for windspeed in km/hr)
2006,12,15,00,00,19.90
2006,12,15,00,01,15.10
2006,12,15,00,02,10.80
2006,12,15,00,03,14.10
2006,12,15,00,04,17.20
2006,12,15,00,05,12.90
2006,12,15,00,06,12.90
2006,12,15,00,07,14.90
2006,12,15,00,08,15.90
2006,12,15,00,09,13.40
2006,12,15,00,10,13.60
2006,12,15,00,11,14.00
2006,12,15,00,12,16.40
2006,12,15,00,13,13.30
2006,12,15,00,14,14.10
2006,12,15,00,15,13.70
2006,12,15,00,16,7.80
2006,12,15,00,17,10.10
2006,12,15,00,18,11.50
2006,12,15,00,19,11.10
2006,12,15,00,20,12.50
2006,12,15,00,21,7.00
2006,12,15,00,22,8.70
2006,12,15,00,23,15.00
2006,12,15,00,24,20.00
2006,12,15,00,25,15.00
2006,12,15,00,26,17.90
2006,12,15,00,27,21.50
2006,12,15,00,28,19.80
2006,12,15,00,29,26.90
2006,12,15,00,30,27.30
2006,12,15,00,31,41.70
2006,12,15,00,32,35.70
2006,12,15,00,33,34.70
2006,12,15,00,34,34.80
2006,12,15,00,35,29.00
2006,12,15,00,36,27.20
2006,12,15,00,37,34.00
2006,12,15,00,38,38.80
2006,12,15,00,39,42.80
2006,12,15,00,40,44.70
2006,12,15,00,41,42.20
2006,12,15,00,42,38.00
2006,12,15,00,43,40.40
2006,12,15,00,44,43.30
2006,12,15,00,45,43.50
2006,12,15,00,46,43.50
2006,12,15,00,47,50.60
2006,12,15,00,48,44.60
2006,12,15,00,49,43.40
2006,12,15,00,50,42.90
2006,12,15,00,51,45.80
2006,12,15,00,52,39.50
2006,12,15,00,53,45.10
2006,12,15,00,54,55.30
2006,12,15,00,55,56.20
2006,12,15,00,56,58.00
2006,12,15,00,57,57.10
2006,12,15,00,58,48.70
2006,12,15,00,59,50.70
2006,12,15,01,00,54.70
2006,12,15,01,01,45.10
2006,12,15,01,02,49.10
2006,12,15,01,03,46.30
2006,12,15,01,04,49.00
2006,12,15,01,05,48.10
2006,12,15,01,06,52.80
2006,12,15,01,07,48.40
2006,12,15,01,08,48.40
2006,12,15,01,09,56.50
2006,12,15,01,10,49.60
2006,12,15,01,11,44.30
2006,12,15,01,12,63.10
2006,12,15,01,13,64.60
2006,12,15,01,14,52.30
2006,12,15,01,15,49.70
2006,12,15,01,16,56.20
2006,12,15,01,17,53.70
2006,12,15,01,18,41.90
2006,12,15,01,19,51.70
2006,12,15,01,20,65.00
2006,12,15,01,21,56.60
2006,12,15,01,22,56.50
2006,12,15,01,23,52.50
2006,12,15,01,24,55.60
2006,12,15,01,25,56.00
2006,12,15,01,26,65.20
2006,12,15,01,27,64.40
2006,12,15,01,28,61.00
2006,12,15,01,29,51.10
2006,12,15,01,30,46.50
2006,12,15,01,31,45.20
2006,12,15,01,32,59.50
2006,12,15,01,33,52.10
2006,12,15,01,34,43.20
2006,12,15,01,35,54.50
2006,12,15,01,36,57.70
2006,12,15,01,37,54.90
2006,12,15,01,38,60.90
2006,12,15,01,39,60.90
2006,12,15,01,40,50.10
2006,12,15,01,41,50.10
2006,12,15,01,42,51.30
2006,12,15,01,43,57.90
2006,12,15,01,44,51.40
2006,12,15,01,45,51.60
2006,12,15,01,46,52.20
2006,12,15,01,47,61.00
2006,12,15,01,48,58.60
2006,12,15,01,49,55.50
2006,12,15,01,50,52.90
2006,12,15,01,51,57.70
2006,12,15,01,52,57.80
2006,12,15,01,53,42.80
2006,12,15,01,54,41.60
2006,12,15,01,55,39.40
2006,12,15,01,56,53.00
2006,12,15,01,57,43.10
2006,12,15,01,58,43.70
2006,12,15,01,59,48.10
2006,12,15,02,00,58.60
2006,12,15,02,01,56.90
2006,12,15,02,02,56.80
2006,12,15,02,03,73.90
2006,12,15,02,04,60.90
2006,12,15,02,05,61.60
2006,12,15,02,06,62.50
2006,12,15,02,07,52.80
2006,12,15,02,08,61.10
2006,12,15,02,09,64.30
2006,12,15,02,10,60.90
2006,12,15,02,11,65.30
2006,12,15,02,12,59.10
2006,12,15,02,13,61.40
2006,12,15,02,14,59.20
2006,12,15,02,15,49.50
2006,12,15,02,16,52.50
2006,12,15,02,17,70.20
2006,12,15,02,18,60.50
2006,12,15,02,19,54.10
2006,12,15,02,20,63.90
2006,12,15,02,21,61.70
2006,12,15,02,22,53.30
2006,12,15,02,23,56.30
2006,12,15,02,24,53.10
2006,12,15,02,25,53.10
2006,12,15,02,26,57.60
2006,12,15,02,27,56.60
2006,12,15,02,28,46.30
2006,12,15,02,29,48.30
2006,12,15,02,30,56.00
2006,12,15,02,31,51.30
2006,12,15,02,32,61.20
2006,12,15,02,33,61.70
2006,12,15,02,34,71.70
2006,12,15,02,35,78.00
2006,12,15,02,36,68.20
2006,12,15,02,37,66.10
2006,12,15,02,38,49.00
2006,12,15,02,39,71.70
2006,12,15,02,40,67.70
2006,12,15,02,41,63.70
2006,12,15,02,42,60.70
2006,12,15,02,43,51.20
2006,12,15,02,44,51.00
2006,12,15,02,45,64.50
2006,12,15,02,46,60.30
2006,12,15,02,47,55.80
2006,12,15,02,48,66.00
2006,12,15,02,49,63.70
2006,12,15,02,50,62.30
2006,12,15,02,51,63.90
2006,12,15,02,52,57.40
2006,12,15,02,53,59.80
2006,12,15,02,54,44.60
2006,12,15,02,55,46.40
2006,12,15,02,56,58.60
2006,12,15,02,57,65.10
2006,12,15,02,58,74.50
2006,12,15,02,59,77.60
2006,12,15,03,00,60.40
2006,12,15,03,01,68.30
2006,12,15,03,02,71.70
2006,12,15,03,03,67.20
2006,12,15,03,04,66.00
2006,12,15,03,05,60.30
2006,12,15,03,06,55.90
2006,12,15,03,07,74.30
2006,12,15,03,08,59.00
2006,12,15,03,09,48.50
2006,12,15,03,10,64.10
2006,12,15,03,11,67.80
2006,12,15,03,12,63.60
2006,12,15,03,13,50.40
2006,12,15,03,14,59.50
2006,12,15,03,15,67.50
2006,12,15,03,16,71.90
2006,12,15,03,17,85.80
2006,12,15,03,18,67.80
2006,12,15,03,19,53.80
2006,12,15,03,20,57.90
2006,12,15,03,21,58.30
2006,12,15,03,22,55.80
2006,12,15,03,23,63.00
2006,12,15,03,24,55.00
2006,12,15,03,25,58.30
2006,12,15,03,26,55.60
2006,12,15,03,27,58.70
2006,12,15,03,28,54.50
2006,12,15,03,29,56.10
2006,12,15,03,30,59.90
2006,12,15,03,31,50.30
2006,12,15,03,32,48.80
2006,12,15,03,33,36.80
2006,12,15,03,34,48.00
2006,12,15,03,35,52.20
2006,12,15,03,36,42.90
2006,12,15,03,37,52.30
2006,12,15,03,38,52.90
2006,12,15,03,39,55.00
2006,12,15,03,40,48.60
2006,12,15,03,41,40.90
2006,12,15,03,42,72.30
2006,12,15,03,43,63.50
2006,12,15,03,44,58.40
2006,12,15,03,45,51.10
2006,12,15,03,46,54.50
2006,12,15,03,47,45.20
2006,12,15,03,48,54.00
2006,12,15,03,49,54.60
2006,12,15,03,50,57.60
2006,12,15,03,51,60.60
2006,12,15,03,52,51.70
2006,12,15,03,53,55.60
2006,12,15,03,54,64.90
2006,12,15,03,55,53.90
2006,12,15,03,56,69.40
2006,12,15,03,57,52.10
2006,12,15,03,58,52.90
2006,12,15,03,59,59.10
2006,12,15,04,00,59.90
2006,12,15,04,01,52.10
2006,12,15,04,02,66.30
2006,12,15,04,03,62.40
2006,12,15,04,04,61.90
2006,12,15,04,05,57.60
2006,12,15,04,06,58.40
2006,12,15,04,07,58.10
2006,12,15,04,08,61.80
2006,12,15,04,09,66.20
2006,12,15,04,10,55.80
2006,12,15,04,11,53.90
2006,12,15,04,12,57.60
2006,12,15,04,13,57.60
2006,12,15,04,14,57.00
2006,12,15,04,15,53.60
2006,12,15,04,16,66.10
2006,12,15,04,17,49.10
2006,12,15,04,18,61.70
2006,12,15,04,19,59.40
2006,12,15,04,20,49.40
2006,12,15,04,21,43.10
2006,12,15,04,22,54.20
2006,12,15,04,23,37.70
2006,12,15,04,24,40.40
2006,12,15,04,25,65.50
2006,12,15,04,26,47.90
2006,12,15,04,27,50.50
2006,12,15,04,28,47.50
2006,12,15,04,29,55.90
2006,12,15,04,30,68.40
2006,12,15,04,31,62.90
2006,12,15,04,32,64.80
2006,12,15,04,33,48.30
2006,12,15,04,34,48.30
2006,12,15,04,35,54.30
2006,12,15,04,36,50.50
2006,12,15,04,37,48.60
2006,12,15,04,38,57.30
2006,12,15,04,39,52.30
2006,12,15,04,40,46.50
2006,12,15,04,41,54.10
2006,12,15,04,42,49.10
2006,12,15,04,43,41.40
2006,12,15,04,44,57.80
2006,12,15,04,45,50.20
2006,12,15,04,46,57.60
2006,12,15,04,47,56.70
2006,12,15,04,48,46.60
2006,12,15,04,49,45.80
2006,12,15,04,50,44.30
2006,12,15,04,51,39.40
2006,12,15,04,52,43.80
2006,12,15,04,53,38.40
2006,12,15,04,54,51.10
2006,12,15,04,55,40.40
2006,12,15,04,56,36.60
2006,12,15,04,57,31.50
2006,12,15,04,58,28.10
2006,12,15,04,59,44.90
2006,12,15,05,00,45.80
2006,12,15,05,01,43.60
2006,12,15,05,02,40.90
2006,12,15,05,03,42.20
2006,12,15,05,04,37.60
2006,12,15,05,05,36.80
2006,12,15,05,06,32.70
2006,12,15,05,07,33.80
2006,12,15,05,08,38.50
2006,12,15,05,09,43.50
2006,12,15,05,10,44.10
2006,12,15,05,11,29.50
2006,12,15,05,12,31.60
2006,12,15,05,13,31.70
2006,12,15,05,14,38.00
2006,12,15,05,15,34.60
2006,12,15,05,16,34.50
2006,12,15,05,17,36.50
2006,12,15,05,18,40.10
2006,12,15,05,19,27.50
2006,12,15,05,20,24.00
2006,12,15,05,21,31.90
2006,12,15,05,22,39.20
2006,12,15,05,23,36.90
2006,12,15,05,24,44.00
2006,12,15,05,25,34.60
2006,12,15,05,26,35.60
2006,12,15,05,27,41.10
2006,12,15,05,28,43.50
2006,12,15,05,29,43.50
2006,12,15,05,30,43.50
2006,12,15,05,31,47.60
2006,12,15,05,32,43.40
2006,12,15,05,33,44.70
2006,12,15,05,34,48.00
2006,12,15,05,35,46.70
2006,12,15,05,36,38.50
2006,12,15,05,37,41.40
2006,12,15,05,38,46.00
2006,12,15,05,39,37.80
2006,12,15,05,40,47.10
2006,12,15,05,41,54.00
2006,12,15,05,42,45.30
2006,12,15,05,43,39.00
2006,12,15,05,44,44.40
2006,12,15,05,45,36.90
2006,12,15,05,46,48.30
2006,12,15,05,47,48.80
2006,12,15,05,48,50.50
2006,12,15,05,49,45.80
2006,12,15,05,50,47.00
2006,12,15,05,51,47.50
2006,12,15,05,52,50.00
2006,12,15,05,53,44.70
2006,12,15,05,54,47.10
2006,12,15,05,55,39.20
2006,12,15,05,56,39.60
2006,12,15,05,57,39.90
2006,12,15,05,58,32.00
2006,12,15,05,59,37.50
2006,12,15,06,00,31.40
2006,12,15,06,01,31.20
2006,12,15,06,02,39.10
2006,12,15,06,03,36.90
2006,12,15,06,04,36.60
2006,12,15,06,05,42.30
2006,12,15,06,06,39.30
2006,12,15,06,07,40.30
2006,12,15,06,08,43.40
2006,12,15,06,09,40.40
2006,12,15,06,10,39.60
2006,12,15,06,11,36.90
2006,12,15,06,12,38.50
2006,12,15,06,13,33.60
2006,12,15,06,14,41.00
2006,12,15,06,15,47.50
2006,12,15,06,16,35.00
2006,12,15,06,17,33.60
2006,12,15,06,18,43.60
2006,12,15,06,19,40.60
2006,12,15,06,20,40.80
2006,12,15,06,21,33.50
2006,12,15,06,22,32.10
2006,12,15,06,23,45.40
2006,12,15,06,24,42.10
2006,12,15,06,25,42.40
2006,12,15,06,26,45.10
2006,12,15,06,27,40.20
2006,12,15,06,28,42.50
2006,12,15,06,29,43.50
2006,12,15,06,30,38.90
2006,12,15,06,31,48.00
2006,12,15,06,32,36.90
2006,12,15,06,33,49.50
2006,12,15,06,34,45.60
2006,12,15,06,35,38.00
2006,12,15,06,36,45.80
2006,12,15,06,37,41.50
2006,12,15,06,38,38.30
2006,12,15,06,39,37.10
2006,12,15,06,40,52.70
2006,12,15,06,41,42.30
2006,12,15,06,42,46.30
2006,12,15,06,43,46.60
2006,12,15,06,44,43.90
2006,12,15,06,45,37.90
2006,12,15,06,46,48.50
2006,12,15,06,47,48.40
2006,12,15,06,48,48.20
2006,12,15,06,49,48.20
2006,12,15,06,50,42.90
2006,12,15,06,51,44.10
2006,12,15,06,52,41.30
2006,12,15,06,53,36.90
2006,12,15,06,54,38.40
2006,12,15,06,55,41.40
2006,12,15,06,56,44.00
2006,12,15,06,57,39.60
2006,12,15,06,58,42.70
2006,12,15,06,59,34.60
2006,12,15,07,00,33.90
2006,12,15,07,01,36.20
2006,12,15,07,02,29.60
2006,12,15,07,03,27.50
2006,12,15,07,04,30.60
2006,12,15,07,05,35.70
2006,12,15,07,06,29.30
2006,12,15,07,07,30.70
2006,12,15,07,08,36.40
2006,12,15,07,09,38.50
2006,12,15,07,10,45.50
2006,12,15,07,11,46.00
2006,12,15,07,12,39.40
2006,12,15,07,13,43.20
2006,12,15,07,14,41.40
2006,12,15,07,15,40.40
2006,12,15,07,16,38.00
2006,12,15,07,17,40.00
2006,12,15,07,18,52.10
2006,12,15,07,19,50.80
2006,12,15,07,20,42.60
2006,12,15,07,21,44.70
2006,12,15,07,22,37.80
2006,12,15,07,23,42.20
2006,12,15,07,24,51.50
2006,12,15,07,25,40.60
2006,12,15,07,26,41.70
2006,12,15,07,27,33.90
2006,12,15,07,28,43.90
2006,12,15,07,29,36.60
2006,12,15,07,30,43.30
2006,12,15,07,31,48.50
2006,12,15,07,32,42.40
2006,12,15,07,33,41.30
2006,12,15,07,34,39.10
2006,12,15,07,35,35.40
2006,12,15,07,36,31.60
2006,12,15,07,37,38.00
2006,12,15,07,38,39.90
2006,12,15,07,39,36.10
2006,12,15,07,40,38.90
2006,12,15,07,41,34.80
2006,12,15,07,42,33.00
2006,12,15,07,43,32.60
2006,12,15,07,44,32.40
2006,12,15,07,45,30.80
2006,12,15,07,46,32.20
2006,12,15,07,47,31.40
2006,12,15,07,48,33.50
2006,12,15,07,49,49.20
2006,12,15,07,50,36.90
2006,12,15,07,51,46.70
2006,12,15,07,52,45.10
2006,12,15,07,53,45.10
2006,12,15,07,54,37.10
2006,12,15,07,55,38.50
2006,12,15,07,56,41.20
2006,12,15,07,57,30.70
2006,12,15,07,58,27.70
2006,12,15,07,59,29.30
2006,12,15,08,00,43.50
2006,12,15,08,01,42.40
2006,12,15,08,02,30.40
2006,12,15,08,03,28.50
2006,12,15,08,04,31.10
2006,12,15,08,05,41.90
2006,12,15,08,06,38.60
2006,12,15,08,07,36.30
2006,12,15,08,08,35.30
2006,12,15,08,09,42.30
2006,12,15,08,10,35.10
2006,12,15,08,11,46.40
2006,12,15,08,12,43.70
2006,12,15,08,13,34.90
2006,12,15,08,14,33.70
2006,12,15,08,15,36.30
2006,12,15,08,16,36.30
2006,12,15,08,17,25.40
2006,12,15,08,18,33.30
2006,12,15,08,19,38.10
2006,12,15,08,20,31.00
2006,12,15,08,21,33.30
2006,12,15,08,22,30.40
2006,12,15,08,23,28.40
2006,12,15,08,24,33.70
2006,12,15,08,25,36.80
2006,12,15,08,26,36.20
2006,12,15,08,27,37.90
2006,12,15,08,28,30.90
2006,12,15,08,29,35.10
2006,12,15,08,30,39.30
2006,12,15,08,31,34.60
2006,12,15,08,32,24.90
2006,12,15,08,33,28.50
2006,12,15,08,34,35.60
2006,12,15,08,35,31.60
2006,12,15,08,36,27.00
2006,12,15,08,37,24.10
2006,12,15,08,38,39.30
2006,12,15,08,39,32.30
2006,12,15,08,40,41.60
2006,12,15,08,41,43.00
2006,12,15,08,42,41.40
2006,12,15,08,43,37.40
2006,12,15,08,44,42.20
2006,12,15,08,45,34.70
2006,12,15,08,46,34.60
2006,12,15,08,47,35.90
2006,12,15,08,48,34.00
2006,12,15,08,49,33.80
2006,12,15,08,50,39.20
2006,12,15,08,51,40.10
2006,12,15,08,52,40.30
2006,12,15,08,53,39.80
2006,12,15,08,54,36.70
2006,12,15,08,55,34.80
2006,12,15,08,56,35.90
2006,12,15,08,57,40.80
2006,12,15,08,58,35.50
2006,12,15,08,59,35.90
2006,12,15,09,00,29.00
2006,12,15,09,01,32.10
2006,12,15,09,02,35.00
2006,12,15,09,03,44.20
2006,12,15,09,04,35.20
2006,12,15,09,05,33.60
2006,12,15,09,06,33.30
2006,12,15,09,07,30.50
2006,12,15,09,08,28.20
2006,12,15,09,09,32.00
2006,12,15,09,10,33.30
2006,12,15,09,11,36.80
2006,12,15,09,12,32.70
2006,12,15,09,13,29.50
2006,12,15,09,14,23.30
2006,12,15,09,15,34.80
2006,12,15,09,16,30.70
2006,12,15,09,17,25.20
2006,12,15,09,18,31.10
2006,12,15,09,19,26.10
2006,12,15,09,20,24.00
2006,12,15,09,21,33.20
2006,12,15,09,22,24.90
2006,12,15,09,23,27.50
2006,12,15,09,24,36.30
2006,12,15,09,25,31.00
2006,12,15,09,26,34.00
2006,12,15,09,27,29.40
2006,12,15,09,28,40.10
2006,12,15,09,29,29.60
2006,12,15,09,30,28.60
2006,12,15,09,31,25.90
2006,12,15,09,32,32.70
2006,12,15,09,33,24.00
2006,12,15,09,34,24.80
2006,12,15,09,35,34.40
2006,12,15,09,36,35.70
2006,12,15,09,37,35.30
2006,12,15,09,38,32.90
2006,12,15,09,39,30.70
2006,12,15,09,40,37.30
2006,12,15,09,41,30.00
2006,12,15,09,42,24.60
2006,12,15,09,43,26.30
2006,12,15,09,44,25.40
2006,12,15,09,45,24.00
2006,12,15,09,46,21.60
2006,12,15,09,47,26.60
2006,12,15,09,48,22.80
2006,12,15,09,49,19.40
2006,12,15,09,50,16.90
2006,12,15,09,51,24.90
2006,12,15,09,52,23.50
2006,12,15,09,53,23.30
2006,12,15,09,54,18.00
2006,12,15,09,55,20.70
2006,12,15,09,56,20.00
2006,12,15,09,57,16.50
2006,12,15,09,58,17.60
2006,12,15,09,59,20.00
2006,12,15,10,00,17.30
2006,12,15,10,01,17.80
2006,12,15,10,02,16.50
2006,12,15,10,03,16.40
2006,12,15,10,04,15.10
2006,12,15,10,05,23.30
2006,12,15,10,06,24.10
2006,12,15,10,07,28.10
2006,12,15,10,08,26.00
2006,12,15,10,09,28.00
2006,12,15,10,10,34.50
2006,12,15,10,11,21.80
2006,12,15,10,12,16.70
2006,12,15,10,13,27.40
2006,12,15,10,14,23.60
2006,12,15,10,15,24.50
2006,12,15,10,16,24.50
2006,12,15,10,17,29.20
2006,12,15,10,18,29.00
2006,12,15,10,19,29.00
2006,12,15,10,20,29.00
2006,12,15,10,21,29.00
2006,12,15,10,22,30.20
2006,12,15,10,23,31.10
2006,12,15,10,24,31.00
2006,12,15,10,25,24.50
2006,12,15,10,26,29.80
2006,12,15,10,27,35.40
2006,12,15,10,28,34.00
2006,12,15,10,29,36.60
2006,12,15,10,30,38.80
2006,12,15,10,31,27.80
2006,12,15,10,32,24.50
2006,12,15,10,33,27.50
2006,12,15,10,34,26.00
2006,12,15,10,35,26.60
2006,12,15,10,36,27.10
2006,12,15,10,37,26.20
2006,12,15,10,38,30.80
2006,12,15,10,39,28.30
2006,12,15,10,40,28.50
2006,12,15,10,41,27.40
2006,12,15,10,42,27.40
2006,12,15,10,43,29.90
2006,12,15,10,44,29.70
2006,12,15,10,45,30.50
2006,12,15,10,46,32.90
2006,12,15,10,47,30.30
2006,12,15,10,48,28.10
2006,12,15,10,49,37.00
2006,12,15,10,50,30.20
2006,12,15,10,51,23.80
2006,12,15,10,52,28.90
2006,12,15,10,53,30.10
2006,12,15,10,54,30.70
2006,12,15,10,55,27.10
2006,12,15,10,56,27.40
2006,12,15,10,57,27.70
2006,12,15,10,58,28.80
2006,12,15,10,59,22.30
2006,12,15,11,00,21.20
2006,12,15,11,01,22.90
2006,12,15,11,02,26.40
2006,12,15,11,03,32.90
2006,12,15,11,04,30.70
2006,12,15,11,05,30.90
2006,12,15,11,06,32.80
2006,12,15,11,07,21.50
2006,12,15,11,08,22.40
2006,12,15,11,09,22.90
2006,12,15,11,10,27.80
2006,12,15,11,11,27.10
2006,12,15,11,12,31.90
2006,12,15,11,13,31.30
2006,12,15,11,14,33.80
2006,12,15,11,15,29.00
2006,12,15,11,16,24.90
2006,12,15,11,17,22.30
2006,12,15,11,18,19.30
2006,12,15,11,19,29.60
2006,12,15,11,20,27.30
2006,12,15,11,21,23.60
2006,12,15,11,22,17.00
2006,12,15,11,23,22.90
2006,12,15,11,24,19.30
2006,12,15,11,25,17.20
2006,12,15,11,26,23.20
2006,12,15,11,27,28.20
2006,12,15,11,28,29.60
2006,12,15,11,29,22.80
2006,12,15,11,30,29.80
2006,12,15,11,31,22.90
2006,12,15,11,32,20.80
2006,12,15,11,33,18.20
2006,12,15,11,34,25.80
2006,12,15,11,35,25.90
2006,12,15,11,36,27.10
2006,12,15,11,37,22.60
2006,12,15,11,38,25.80
2006,12,15,11,39,30.90
2006,12,15,11,40,27.80
2006,12,15,11,41,21.30
2006,12,15,11,42,21.80
2006,12,15,11,43,18.00
2006,12,15,11,44,22.40
2006,12,15,11,45,18.10
2006,12,15,11,46,19.40
2006,12,15,11,47,20.80
2006,12,15,11,48,23.30
2006,12,15,11,49,23.90
2006,12,15,11,50,21.80
2006,12,15,11,51,24.30
2006,12,15,11,52,25.70
2006,12,15,11,53,28.50
2006,12,15,11,54,30.30
2006,12,15,11,55,31.90
2006,12,15,11,56,27.80
2006,12,15,11,57,31.20
2006,12,15,11,58,23.60
2006,12,15,11,59,26.20
2006,12,15,12,00,31.40
2006,12,15,12,01,26.50
2006,12,15,12,02,24.20
2006,12,15,12,03,33.30
2006,12,15,12,04,35.50
2006,12,15,12,05,31.90
2006,12,15,12,06,28.30
2006,12,15,12,07,36.30
2006,12,15,12,08,32.70
2006,12,15,12,09,30.30
2006,12,15,12,10,27.00
2006,12,15,12,11,21.60
2006,12,15,12,12,25.00
2006,12,15,12,13,20.90
2006,12,15,12,14,34.60
2006,12,15,12,15,35.10
2006,12,15,12,16,27.50
2006,12,15,12,17,31.50
2006,12,15,12,18,30.30
2006,12,15,12,19,33.20
2006,12,15,12,20,35.00
2006,12,15,12,21,31.50
2006,12,15,12,22,33.20
2006,12,15,12,23,30.60
2006,12,15,12,24,30.20
2006,12,15,12,25,22.40
2006,12,15,12,26,22.50
2006,12,15,12,27,17.80
2006,12,15,12,28,26.40
2006,12,15,12,29,32.30
2006,12,15,12,30,23.70
2006,12,15,12,31,29.10
2006,12,15,12,32,25.80
2006,12,15,12,33,28.30
2006,12,15,12,34,26.40
2006,12,15,12,35,30.30
2006,12,15,12,36,33.50
2006,12,15,12,37,28.00
2006,12,15,12,38,31.00
2006,12,15,12,39,30.70
2006,12,15,12,40,23.00
2006,12,15,12,41,24.60
2006,12,15,12,42,24.90
2006,12,15,12,43,24.40
2006,12,15,12,44,22.00
2006,12,15,12,45,21.70
2006,12,15,12,46,25.60
2006,12,15,12,47,30.90
2006,12,15,12,48,27.80
2006,12,15,12,49,21.90
2006,12,15,12,50,17.40
2006,12,15,12,51,21.50
2006,12,15,12,52,28.40
2006,12,15,12,53,24.40
2006,12,15,12,54,25.30
2006,12,15,12,55,21.90
2006,12,15,12,56,28.30
2006,12,15,12,57,20.30
2006,12,15,12,58,19.10
2006,12,15,12,59,22.30
2006,12,15,13,00,24.70
2006,12,15,13,01,24.40
2006,12,15,13,02,21.80
2006,12,15,13,03,22.90
2006,12,15,13,04,26.30
2006,12,15,13,05,28.80
2006,12,15,13,06,22.60
2006,12,15,13,07,21.60
2006,12,15,13,08,21.20
2006,12,15,13,09,15.60
2006,12,15,13,10,15.70
2006,12,15,13,11,15.20
2006,12,15,13,12,26.90
2006,12,15,13,13,23.20
2006,12,15,13,14,26.90
2006,12,15,13,15,26.90
2006,12,15,13,16,28.20
2006,12,15,13,17,24.70
2006,12,15,13,18,19.10
2006,12,15,13,19,19.70
2006,12,15,13,20,22.90
2006,12,15,13,21,22.00
2006,12,15,13,22,20.60
2006,12,15,13,23,31.70
2006,12,15,13,24,26.00
2006,12,15,13,25,20.80
2006,12,15,13,26,21.00
2006,12,15,13,27,22.50
2006,12,15,13,28,21.80
2006,12,15,13,29,26.20
2006,12,15,13,30,30.30
2006,12,15,13,31,26.30
2006,12,15,13,32,31.30
2006,12,15,13,33,31.90
2006,12,15,13,34,29.70
2006,12,15,13,35,27.40
2006,12,15,13,36,29.60
2006,12,15,13,37,32.20
2006,12,15,13,38,26.10
2006,12,15,13,39,23.30
2006,12,15,13,40,19.40
2006,12,15,13,41,18.70
2006,12,15,13,42,15.80
2006,12,15,13,43,21.90
2006,12,15,13,44,24.60
2006,12,15,13,45,22.70
2006,12,15,13,46,30.70
2006,12,15,13,47,26.20
2006,12,15,13,48,27.40
2006,12,15,13,49,32.60
2006,12,15,13,50,28.20
2006,12,15,13,51,40.80
2006,12,15,13,52,39.60
2006,12,15,13,53,31.70
2006,12,15,13,54,28.40
2006,12,15,13,55,32.30
2006,12,15,13,56,34.00
2006,12,15,13,57,25.80
2006,12,15,13,58,29.10
2006,12,15,13,59,29.80
2006,12,15,14,00,28.50
2006,12,15,14,01,29.70
2006,12,15,14,02,25.40
2006,12,15,14,03,36.10
2006,12,15,14,04,33.80
2006,12,15,14,05,25.40
2006,12,15,14,06,23.70
2006,12,15,14,07,20.20
2006,12,15,14,08,32.40
2006,12,15,14,09,26.00
2006,12,15,14,10,15.00
2006,12,15,14,11,21.30
2006,12,15,14,12,22.20
2006,12,15,14,13,21.80
2006,12,15,14,14,22.50
2006,12,15,14,15,27.10
2006,12,15,14,16,23.30
2006,12,15,14,17,24.60
2006,12,15,14,18,21.20
2006,12,15,14,19,21.00
2006,12,15,14,20,27.50
2006,12,15,14,21,24.70
2006,12,15,14,22,22.90
2006,12,15,14,23,22.00
2006,12,15,14,24,19.20
2006,12,15,14,25,21.40
2006,12,15,14,26,22.60
2006,12,15,14,27,20.60
2006,12,15,14,28,19.30
2006,12,15,14,29,16.20
2006,12,15,14,30,13.10
2006,12,15,14,31,17.70
2006,12,15,14,32,13.70
2006,12,15,14,33,15.40
2006,12,15,14,34,18.80
2006,12,15,14,35,21.60
2006,12,15,14,36,24.50
2006,12,15,14,37,19.30
2006,12,15,14,38,18.50
2006,12,15,14,39,16.60
2006,12,15,14,40,13.30
2006,12,15,14,41,18.00
2006,12,15,14,42,19.30
2006,12,15,14,43,18.90
2006,12,15,14,44,20.30
2006,12,15,14,45,17.50
2006,12,15,14,46,15.60
2006,12,15,14,47,21.20
2006,12,15,14,48,21.40
2006,12,15,14,49,20.20
2006,12,15,14,50,17.50
2006,12,15,14,51,17.70
2006,12,15,14,52,17.60
2006,12,15,14,53,24.30
2006,12,15,14,54,22.30
2006,12,15,14,55,20.80
2006,12,15,14,56,20.40
2006,12,15,14,57,15.80
2006,12,15,14,58,20.00
2006,12,15,14,59,18.90
2006,12,15,15,00,16.20
2006,12,15,15,01,19.10
2006,12,15,15,02,17.10
2006,12,15,15,03,17.00
2006,12,15,15,04,17.90
2006,12,15,15,05,13.30
2006,12,15,15,06,15.90
2006,12,15,15,07,15.90
2006,12,15,15,08,13.50
2006,12,15,15,09,9.00
2006,12,15,15,10,12.70
2006,12,15,15,11,11.40
2006,12,15,15,12,10.20
2006,12,15,15,13,8.30
2006,12,15,15,14,9.50
2006,12,15,15,15,10.80
2006,12,15,15,16,8.10
2006,12,15,15,17,8.10
2006,12,15,15,18,12.30
2006,12,15,15,19,13.20
2006,12,15,15,20,12.00
2006,12,15,15,21,9.60
2006,12,15,15,22,10.50
2006,12,15,15,23,10.50
2006,12,15,15,24,10.20
2006,12,15,15,25,7.90
2006,12,15,15,26,9.00
2006,12,15,15,27,10.30
2006,12,15,15,28,8.90
2006,12,15,15,29,9.20
2006,12,15,15,30,7.70
2006,12,15,15,31,7.90
2006,12,15,15,32,8.50
2006,12,15,15,33,10.50
2006,12,15,15,34,7.40
2006,12,15,15,35,7.20
2006,12,15,15,36,9.60
2006,12,15,15,37,8.10
2006,12,15,15,38,8.40
2006,12,15,15,39,9.20
2006,12,15,15,40,10.80
2006,12,15,15,41,10.60
2006,12,15,15,42,14.80
2006,12,15,15,43,10.30
2006,12,15,15,44,10.10
2006,12,15,15,45,9.30
2006,12,15,15,46,10.40
2006,12,15,15,47,14.20
2006,12,15,15,48,14.10
2006,12,15,15,49,14.90
2006,12,15,15,50,8.00
2006,12,15,15,51,8.10
2006,12,15,15,52,7.60
2006,12,15,15,53,7.90
2006,12,15,15,54,9.10
2006,12,15,15,55,12.20
2006,12,15,15,56,9.90
2006,12,15,15,57,10.90
2006,12,15,15,58,9.30
2006,12,15,15,59,9.80
2006,12,15,16,00,9.80
2006,12,15,16,01,8.10
2006,12,15,16,02,6.30
2006,12,15,16,03,7.80
2006,12,15,16,04,6.30
2006,12,15,16,05,5.60
2006,12,15,16,06,5.60
2006,12,15,16,07,5.80
2006,12,15,16,08,5.10
2006,12,15,16,09,5.40
2006,12,15,16,10,6.00
2006,12,15,16,11,6.40
2006,12,15,16,12,6.40
2006,12,15,16,13,7.40
2006,12,15,16,14,8.70
2006,12,15,16,15,7.40
2006,12,15,16,16,6.00
2006,12,15,16,17,5.70
2006,12,15,16,18,4.20
2006,12,15,16,19,4.70
2006,12,15,16,20,6.40
2006,12,15,16,21,3.70
2006,12,15,16,22,4.80
2006,12,15,16,23,4.80
2006,12,15,16,24,7.10
2006,12,15,16,25,8.20
2006,12,15,16,26,8.10
2006,12,15,16,27,7.00
2006,12,15,16,28,6.20
2006,12,15,16,29,7.30
2006,12,15,16,30,7.30
2006,12,15,16,31,8.10
2006,12,15,16,32,7.90
2006,12,15,16,33,6.00
2006,12,15,16,34,8.50
2006,12,15,16,35,8.30
2006,12,15,16,36,8.50
2006,12,15,16,37,10.80
2006,12,15,16,38,10.80
2006,12,15,16,39,17.10
2006,12,15,16,40,12.80
2006,12,15,16,41,13.40
2006,12,15,16,42,14.60
2006,12,15,16,43,13.80
2006,12,15,16,44,14.00
2006,12,15,16,45,11.80
2006,12,15,16,46,14.60
2006,12,15,16,47,14.10
2006,12,15,16,48,14.60
2006,12,15,16,49,13.90
2006,12,15,16,50,9.70
2006,12,15,16,51,7.30
2006,12,15,16,52,6.80
2006,12,15,16,53,6.40
2006,12,15,16,54,6.50
2006,12,15,16,55,5.80
2006,12,15,16,56,7.60
2006,12,15,16,57,9.60
2006,12,15,16,58,8.90
2006,12,15,16,59,8.30
2006,12,15,17,00,9.70
2006,12,15,17,01,6.60
2006,12,15,17,02,5.90
2006,12,15,17,03,5.30
2006,12,15,17,04,5.60
2006,12,15,17,05,5.10
2006,12,15,17,06,6.70
2006,12,15,17,07,6.50
2006,12,15,17,08,5.30
2006,12,15,17,09,6.00
2006,12,15,17,10,5.90
2006,12,15,17,11,4.10
2006,12,15,17,12,4.50
2006,12,15,17,13,4.30
2006,12,15,17,14,5.50
2006,12,15,17,15,5.60
2006,12,15,17,16,5.60
2006,12,15,17,17,4.70
2006,12,15,17,18,4.70
2006,12,15,17,19,5.80
2006,12,15,17,20,5.00
2006,12,15,17,21,5.40
2006,12,15,17,22,5.70
2006,12,15,17,23,7.10